International Skating Union - Official Site

ISU Junior World Cup Collalbo
January 21-22, 2017

Draw | Lap Times | Index | World Cup

Referee: Roar  Eriksen  (NOR)
Starter: Giovanni  TALAMINI  (ITA)
StartTime: EndTime: Air Temp: Ice Temp: Humidity:
Result Mass Start Final Men 
Rankings as of Jan 22 2017 4:25PM
Rank: No.: Name: Nation: Sprint Points: Time: Behind: Points:
1 163 Hae Young  Lee KOR KOR 30 5:05.83 100
2 164 Hyun Min  Oh KOR KOR 20 5:06.58 0.75 80
3 167 Bart  Hoolwerf NED NED 10 5:06.98 1.15 70
4 169 Marwin  Talsma NED NED 3 5:09.29 3.46 60
5 126 Oliver   Lindenskov DEN DEN 1 5:23.71 17.88 50
6 129 Kaspar  Kaljuvee EST EST 5:08.42 2.59 44
7 150 Gabriele  Galli ITA ITA 5:10.14 4.31 40
8 199 David  Karlingsjö SWE SWE 5:10.35 4.52 36
9 125 Jakub  Kopřiva CZE CZE 5:10.41 4.58 32
10 137 Samuli  Suomalainen FIN FIN 5:10.73 4.90 28
11 110 Anton  Iliyshenka BLR BLR 5:14.00 8.17 24
12 116 Zhibo  Cui CHN CHN 5:14.26 8.43 20
13 185 Jan   Świątek POL POL 5:15.33 9.50 18
14 172 Odin By  Farstad NOR NOR 5:17.56 11.73 16
15 105 Jonathan  Schildermans BEL BEL 5:19.95 14.12 14
16 198 Wilhelm  Ekensskär SWE SWE 5:20.34 14.51 12
17 195 Matej  Filip SVK SVK 5:21.01 15.18 10
18 102 Gabriel  Odor AUT AUT 5:21.20 15.37 8
19 127 Niclas  Mastrup DEN DEN 5:21.82 15.99 6
20 104 Jarno  Schellekens BEL BEL 5:21.94 16.11 5
21 158 Artur  Galiyev KAZ KAZ 5:23.74 17.91 4
22 124 Sebastien  Briestansky CZE CZE 5:24.84 19.01 3
23 179 Sebastian  Janicki POL POL 5:27.29 21.46 2
24 128 Rafael  Heredia ESP ESP 5:30.26 24.43 1
25 118 Alemasi  Kahanbai CHN CHN 4:41.08 -24.75 0
26 196 Jakub  Klembara SVK SVK 4:00.10 -65.73 0
27 134 Antero  Eskola FIN FIN 5:49.54 43.71 0
28 101 Mathias  Hauer AUT AUT 3:14.43 -111.40 0